Location: ???????????
(38.2661°N, 23.2350°E)
Time: 01:21:42
(UTC+00:00)

Cosmos 2322 Rocket - Pass Details

Date: 25 September 2023
Orbit: 830 x 852 km, 71.0° (Epoch: 08 December)

Event Time Altitude Azimuth Distance (km) Brightness Sun altitude
Rises 17:08:47 0° 220° (SW) 3,362 5.8 -10.4°
Reaches altitude 10° 17:11:20 10° 228° (SW) 2,431 5.2 -10.9°
Maximum altitude 17:16:35 42° 298° (WNW) 1,179 3.6 -11.9°
Drops below altitude 10° 17:21:52 10° 9° (N) 2,445 4.6 -12.9°
Sets 17:24:28 0° 16° (NNE) 3,384 5.3 -13.4°
